Temp
12 13 13 13 13 12 12 11 12 12 11 11 11 11 11 11 11 11 11 10 10 9 9 9 9 9 9 9 9 9 9 9 9 9 9 9 8 8 8 7 8 7 7 7 7 7 7 7 7
13 13 13 13 13 12 12 12 11 11 11 11 11 11 11 10 11 11 11 10 10 9 9 9 9 9 9 9 9 9 9 9 9 9 9 9 8 8 8 8 8 7 7 7 7 7 7 7 7
13 13 13 13 12 12 12 12 12 11 11 11 10 10 10 10 11 11 11 11 10 10 9 9 9 9 9 9 9 9 9 8 8 9 9 9 9 8 8 8 8 8 8 7 8 8 8 7 7
13 13 13 13 12 12 12 12 12 11 10 10 11 11 12 10 11 11 11 10 10 10 9 9 9 9 9 9 9 9 9 9 9 9 9 9 8 8 8 8 8 8 8 8 8 8 8 8 8
13 14 13 12 12 12 12 12 12 11 11 11 11 11 12 11 11 10 10 10 10 10 9 9 9 9 9 9 9 9 9 9 9 9 9 9 9 8 8 8 8 8 8 8 8 8 8 8 8
14 13 13 12 12 12 12 12 12 12 11 11 12 12 12 11 10 10 10 10 10 9 9 9 9 9 9 9 9 9 9 9 9 9 9 9 9 8 8 8 8 8 8 8 8 8 8 8 8
14 13 13 13 13 12 12 12 12 12 12 11 11 12 11 11 10 10 10 10 10 10 9 9 9 10 9 9 9 9 9 9 9 9 9 9 9 9 9 9 9 8 8 8 8 8 8 8 8
14 14 14 14 13 13 13 12 12 11 11 11 11 11 12 11 11 11 10 10 10 10 9 10 10 10 9 9 9 9 9 9 9 9 9 9 9 8 8 9 9 9 9 8 9 9 8 8 8
14 14 14 14 14 14 13 13 12 12 11 11 11 11 11 11 11 11 11 11 10 10 10 10 10 10 10 10 9 9 9 9 9 9 8 8 8 8 8 8 8 8 8 8 8 8 8 8 8
14 14 14 14 14 14 13 13 12 12 12 12 11 11 11 11 11 11 11 11 11 10 10 10 10 9 9 9 9 9 9 9 9 9 8 8 8 8 8 8 8 8 8 8 8 8 8 8 8
14 14 14 14 14 14 13 13 13 12 12 12 11 11 11 11 10 10 10 10 10 10 10 10 10 10 9 9 9 9 9 9 9 9 9 8 8 8 8 8 8 8 8 8 7 7 7 7 7
14 14 14 14 14 14 13 14 13 13 12 12 11 11 11 11 10 10 10 11 11 10 10 10 10 10 10 9 9 9 9 9 9 9 8 8 8 8 8 8 8 8 8 8 8 8 8 8 8
15 15 15 15 15 14 14 14 13 13 12 12 11 10 11 10 10 10 10 10 10 10 10 10 10 10 9 9 9 9 8 8 9 8 8 8 8 8 8 8 8 8 8 8 8 8 8 8 8
15 15 15 15 14 15 14 14 13 13 12 11 11 11 10 11 11 11 10 10 10 10 10 10 10 10 9 9 9 9 9 9 9 9 8 8 8 8 8 8 8 8 7 7 7 8 8 8 8
15 14 14 15 15 14 14 13 14 13 13 12 12 11 10 10 11 11 10 10 9 9 10 10 10 9 9 9 9 9 9 9 9 9 9 8 8 8 8 8 8 7 8 7 7 7 8 8 8
15 15 15 15 15 14 14 14 14 13 14 13 13 12 10 10 11 11 10 10 9 9 9 9 10 10 9 9 9 9 9 9 9 9 9 9 8 8 8 8 8 8 8 8 8 8 8 8 8
15 15 15 16 15 15 14 14 14 14 13 14 13 12 11 11 10 10 10 10 10 9 9 9 9 10 9 9 10 10 10 9 9 9 9 8 8 8 8 8 8 8 7 7 8 8 8 8 8
15 15 16 16 15 15 14 14 14 14 14 14 14 13 12 11 11 11 10 10 10 10 9 9 9 10 10 10 10 10 10 9 9 9 9 9 9 9 9 8 8 8 8 7 8 8 8 8 9
15 16 16 16 16 15 15 15 15 14 14 15 14 13 13 12 11 11 10 10 10 10 10 10 9 9 10 10 10 10 10 10 9 9 9 9 9 9 9 9 8 8 8 8 8 8 8 9 9
15 16 16 16 16 15 15 16 15 15 15 15 15 14 13 12 11 11 11 10 10 10 10 10 10 9 10 10 10 10 10 10 10 10 9 9 9 9 10 9 9 9 9 9 9 9 9 9 9
16 16 16 15 16 16 15 16 17 16 15 16 15 14 13 13 12 12 11 11 11 10 10 10 10 10 9 10 11 11 10 10 10 9 9 9 9 9 9 10 9 9 9 9 9 9 9 9 9
16 16 16 17 16 15 15 16 17 17 17 16 16 15 14 13 12 12 12 11 11 11 10 10 10 10 10 11 11 11 10 10 10 9 9 9 9 9 9 10 9 9 9 9 9 9 9 9 9
16 16 16 16 16 15 15 14 18 17 17 17 16 15 15 14 13 12 12 12 12 11 11 11 10 10 11 11 11 11 11 10 10 10 9 9 9 9 10 10 10 9 10 9 9 9 9 9 9
16 16 16 16 15 16 14 14 17 17 17 16 16 16 15 15 14 13 13 12 12 12 12 12 12 12 11 11 11 11 11 10 10 10 10 10 9 9 10 10 10 10 10 10 10 9 9 9 9
16 16 16 17 16 17 15 13 18 17 17 16 16 16 16 15 15 14 14 14 13 13 13 13 12 12 12 12 11 11 11 10 10 10 10 9 9 10 11 11 10 10 10 10 10 10 10 10 10
16 16 17 16 17 17 16 16 18 18 17 17 16 16 16 16 16 15 15 15 14 14 14 14 13 12 12 12 12 11 11 11 10 9 9 10 10 10 11 11 11 10 10 10 10 10 10 10 10
16 16 17 16 15 14 16 18 18 18 17 17 17 16 16 16 16 15 15 15 14 14 14 14 14 13 12 12 12 12 11 10 10 10 10 10 10 11 11 11 10 10 10 10 10 10 10 10 9
16 17 16 16 17 17 17 16 18 18 18 17 17 17 16 16 16 15 15 15 15 14 14 14 13 13 12 12 12 12 11 11 10 10 10 10 11 11 11 10 10 10 10 10 10 10 10 10 9
16 16 16 16 16 18 18 19 18 18 18 18 17 17 17 16 16 16 15 15 15 14 14 14 14 13 13 13 12 12 11 11 11 10 10 10 11 11 11 10 10 10 10 10 10 10 10 10 10
15 16 16 17 15 15 15 18 18 18 18 18 16 17 17 17 16 16 16 16 15 15 15 14 14 14 13 13 12 12 11 11 11 11 10 10 11 11 11 10 10 10 10 9 9 9 9 9 9
Height
3158 3158 3158 3158 3163 3161 3161 3163 3162 3162 3164 3164 3166 3167 3169 3169 3170 3174 3172 3173 3176 3179 3181 3182 3184 3184 3186 3187 3188 3189 3190 3192 3193 3194 3195 3196 3197 3198 3199 3200 3200 3200 3201 3202 3203 3204 3205 3206 3208
3161 3161 3161 3160 3163 3162 3164 3164 3164 3164 3165 3166 3167 3168 3169 3170 3170 3171 3174 3175 3177 3180 3182 3184 3185 3187 3188 3189 3190 3192 3193 3194 3195 3196 3198 3198 3200 3201 3201 3202 3202 3203 3204 3204 3205 3206 3206 3207 3209
3164 3164 3163 3163 3164 3165 3166 3166 3166 3166 3166 3167 3167 3167 3168 3169 3171 3173 3175 3177 3179 3181 3184 3186 3187 3188 3189 3190 3192 3193 3195 3196 3197 3198 3200 3201 3202 3203 3204 3204 3204 3205 3206 3206 3207 3208 3208 3208 3210
3166 3166 3166 3167 3167 3167 3168 3168 3167 3167 3167 3167 3168 3168 3168 3169 3172 3175 3177 3179 3181 3183 3185 3188 3189 3190 3191 3193 3194 3195 3196 3197 3198 3200 3201 3202 3204 3204 3205 3206 3206 3207 3208 3209 3209 3209 3210 3209 3211
3169 3168 3168 3168 3168 3168 3168 3169 3169 3169 3168 3169 3169 3168 3168 3170 3174 3177 3179 3181 3182 3185 3187 3189 3191 3192 3193 3194 3196 3197 3198 3198 3199 3201 3202 3204 3205 3205 3205 3206 3206 3208 3209 3210 3210 3211 3211 3211 3211
3171 3170 3171 3170 3170 3170 3170 3170 3170 3170 3169 3170 3169 3170 3171 3171 3175 3178 3180 3181 3183 3187 3189 3190 3191 3193 3194 3196 3198 3199 3200 3201 3202 3202 3203 3205 3206 3207 3207 3207 3208 3209 3210 3211 3211 3211 3211 3211 3212
3172 3171 3171 3171 3171 3172 3172 3172 3172 3172 3171 3171 3171 3172 3173 3173 3175 3178 3181 3182 3185 3188 3190 3191 3193 3194 3196 3197 3199 3201 3202 3203 3204 3204 3205 3206 3207 3208 3207 3208 3208 3209 3210 3211 3211 3211 3211 3211 3211
3173 3172 3172 3172 3173 3173 3173 3173 3173 3173 3173 3172 3173 3174 3174 3175 3176 3179 3182 3184 3186 3189 3191 3192 3194 3196 3197 3199 3200 3202 3203 3204 3205 3206 3206 3207 3208 3207 3208 3208 3208 3209 3210 3211 3211 3210 3210 3211 3211
3174 3175 3173 3173 3173 3174 3174 3174 3175 3174 3174 3173 3174 3174 3176 3177 3178 3181 3183 3185 3188 3189 3191 3193 3195 3196 3198 3199 3201 3202 3203 3204 3206 3206 3207 3208 3208 3208 3208 3209 3209 3208 3209 3209 3210 3210 3209 3210 3210
3176 3175 3175 3175 3174 3174 3174 3175 3176 3176 3174 3173 3174 3174 3177 3179 3181 3183 3185 3187 3189 3191 3193 3194 3196 3197 3199 3200 3201 3202 3204 3205 3206 3206 3207 3207 3207 3207 3207 3208 3208 3208 3207 3207 3207 3208 3207 3207 3208
3176 3176 3175 3175 3175 3175 3175 3175 3176 3176 3175 3175 3174 3174 3177 3180 3181 3184 3186 3188 3190 3192 3193 3195 3197 3198 3200 3201 3202 3202 3203 3204 3205 3206 3207 3207 3207 3207 3207 3207 3207 3207 3206 3206 3206 3205 3205 3205 3205
3176 3176 3175 3175 3175 3175 3175 3175 3176 3176 3177 3175 3175 3177 3178 3180 3182 3185 3187 3188 3190 3192 3194 3196 3198 3199 3199 3200 3201 3202 3202 3204 3205 3206 3206 3207 3207 3207 3207 3207 3206 3206 3205 3205 3204 3203 3203 3203 3202
3177 3176 3175 3175 3174 3174 3175 3175 3175 3176 3176 3175 3175 3176 3179 3181 3183 3184 3186 3188 3189 3192 3194 3196 3198 3198 3199 3200 3201 3201 3202 3202 3203 3205 3205 3206 3206 3206 3206 3206 3205 3204 3204 3203 3202 3202 3201 3201 3200
3178 3176 3175 3175 3174 3174 3173 3173 3174 3176 3175 3174 3174 3175 3178 3181 3183 3184 3186 3188 3189 3191 3194 3196 3198 3198 3199 3200 3201 3201 3201 3202 3203 3204 3204 3205 3205 3205 3205 3204 3203 3201 3201 3201 3200 3199 3199 3198 3198
3177 3177 3176 3175 3175 3174 3174 3173 3174 3176 3175 3174 3174 3175 3177 3180 3182 3185 3186 3188 3190 3192 3194 3196 3197 3198 3199 3200 3200 3201 3201 3202 3203 3203 3204 3204 3204 3204 3204 3203 3199 3198 3197 3197 3198 3197 3196 3196 3196
3178 3177 3176 3176 3175 3174 3174 3174 3174 3175 3176 3175 3174 3174 3176 3178 3182 3184 3186 3188 3190 3192 3194 3196 3197 3198 3199 3200 3201 3202 3202 3202 3203 3204 3204 3204 3204 3203 3201 3200 3198 3196 3194 3194 3195 3194 3193 3194 3194
3179 3177 3175 3175 3174 3174 3174 3173 3173 3174 3175 3176 3175 3175 3175 3177 3179 3182 3185 3188 3190 3192 3194 3196 3197 3198 3200 3200 3201 3202 3203 3203 3204 3204 3204 3204 3203 3202 3200 3197 3195 3192 3190 3189 3191 3191 3190 3191 3192
3179 3176 3175 3174 3174 3173 3173 3172 3171 3172 3173 3175 3175 3175 3175 3176 3178 3181 3184 3186 3189 3191 3193 3195 3197 3198 3200 3201 3202 3203 3204 3204 3205 3205 3205 3204 3202 3201 3199 3196 3192 3188 3185 3183 3186 3187 3189 3190 3190
3179 3177 3174 3174 3171 3171 3170 3170 3169 3170 3170 3170 3173 3174 3175 3176 3178 3181 3182 3185 3187 3189 3191 3194 3197 3198 3199 3201 3202 3203 3204 3205 3205 3205 3204 3203 3202 3200 3197 3194 3189 3182 3178 3177 3184 3187 3188 3189 3189
3178 3176 3174 3171 3169 3169 3167 3166 3165 3165 3166 3167 3170 3173 3175 3175 3175 3178 3180 3182 3185 3188 3190 3192 3195 3197 3199 3199 3201 3203 3204 3204 3205 3204 3203 3201 3199 3198 3195 3192 3189 3182 3178 3179 3183 3186 3188 3188 3188
3177 3176 3173 3171 3168 3167 3166 3163 3162 3161 3161 3163 3166 3168 3171 3174 3175 3176 3178 3179 3182 3184 3188 3191 3193 3196 3197 3199 3200 3202 3203 3204 3204 3203 3202 3200 3198 3196 3194 3192 3190 3188 3185 3184 3185 3186 3187 3188 3187
3176 3175 3171 3168 3168 3169 3168 3166 3160 3159 3158 3159 3162 3164 3167 3169 3172 3174 3176 3177 3179 3182 3185 3189 3191 3193 3195 3197 3198 3200 3202 3202 3202 3200 3199 3197 3197 3195 3193 3191 3190 3189 3188 3187 3186 3186 3186 3186 3185
3174 3172 3171 3168 3168 3168 3167 3167 3159 3157 3156 3156 3158 3161 3164 3166 3169 3170 3172 3175 3177 3180 3183 3186 3189 3191 3193 3195 3197 3199 3200 3200 3200 3198 3197 3197 3196 3194 3192 3191 3189 3188 3187 3187 3186 3185 3184 3183 3183
3172 3171 3170 3167 3167 3167 3166 3168 3158 3156 3155 3154 3155 3157 3160 3163 3166 3169 3170 3172 3174 3176 3179 3182 3185 3188 3191 3193 3195 3197 3198 3198 3197 3197 3195 3195 3194 3192 3191 3189 3188 3186 3185 3184 3183 3182 3182 3181 3180
3170 3170 3169 3167 3167 3167 3164 3164 3158 3156 3154 3152 3152 3152 3154 3158 3162 3165 3166 3168 3171 3173 3176 3179 3182 3185 3188 3190 3192 3194 3195 3196 3195 3194 3193 3193 3192 3190 3189 3188 3186 3185 3184 3182 3181 3180 3179 3178 3177
3167 3168 3167 3166 3164 3164 3163 3158 3156 3153 3151 3151 3150 3149 3150 3154 3158 3161 3164 3166 3169 3172 3174 3177 3179 3182 3185 3187 3190 3191 3192 3194 3193 3192 3191 3191 3190 3189 3187 3186 3185 3184 3182 3181 3180 3179 3177 3176 3175
3163 3164 3165 3164 3162 3164 3160 3155 3153 3151 3150 3149 3149 3148 3149 3152 3155 3158 3161 3164 3167 3169 3172 3175 3177 3180 3182 3185 3186 3188 3189 3191 3190 3190 3189 3189 3188 3187 3186 3185 3184 3183 3181 3180 3179 3176 3174 3173 3172
3159 3161 3162 3162 3161 3159 3156 3154 3152 3151 3149 3149 3149 3149 3150 3153 3155 3157 3159 3162 3164 3167 3169 3172 3175 3177 3180 3182 3184 3185 3187 3187 3188 3188 3187 3187 3186 3185 3185 3184 3183 3182 3181 3179 3177 3175 3173 3171 3169
3155 3155 3157 3158 3159 3155 3154 3152 3151 3151 3149 3148 3149 3150 3151 3152 3153 3155 3156 3159 3162 3164 3165 3168 3170 3173 3175 3178 3180 3182 3183 3184 3185 3185 3185 3184 3183 3183 3183 3183 3182 3181 3180 3178 3176 3174 3172 3169 3166
3151 3153 3153 3154 3155 3154 3154 3151 3151 3150 3149 3148 3149 3150 3150 3151 3152 3154 3155 3156 3159 3161 3162 3164 3166 3168 3172 3174 3177 3179 3180 3181 3182 3182 3182 3183 3182 3182 3181 3181 3181 3180 3179 3177 3175 3172 3170 3168 3165
Wind_Speed
11 14 15 13 11 12 15 9 9 11 9 7 10 8 8 5 4 1 14 15 14 12 14 15 15 15 14 14 15 15 15 15 15 16 16 14 14 13 13 13 13 12 11 10 11 11 11 11 10
17 16 19 18 16 14 12 11 9 8 5 6 9 1 4 2 2 4 14 16 15 13 13 13 14 12 13 13 13 14 14 14 13 14 13 13 11 12 12 12 12 11 11 9 9 9 9 9 9
16 15 13 13 18 14 13 11 10 9 7 4 3 4 3 3 5 13 12 14 15 14 13 11 10 10 10 11 11 12 12 12 12 11 11 10 9 9 10 10 11 11 10 9 7 8 8 8 8
17 16 15 17 17 16 12 12 11 9 7 2 3 1 1 10 10 15 14 14 15 14 13 11 9 9 10 10 11 10 10 10 10 10 10 9 8 7 8 8 9 9 9 9 7 6 7 6 6
13 17 16 14 13 13 11 10 10 7 6 5 4 4 11 17 19 16 15 14 14 13 12 11 10 10 10 11 11 11 11 10 9 9 10 8 6 6 5 5 5 6 6 7 7 6 6 5 4
13 12 13 12 11 8 10 10 9 10 11 9 8 8 18 22 18 16 16 15 16 12 12 12 11 11 10 11 11 10 10 10 9 9 8 7 4 4 3 2 2 2 3 3 5 6 5 5 4
11 10 9 9 9 9 6 6 7 9 11 10 10 9 16 21 20 17 16 16 15 14 13 12 12 12 11 11 10 9 9 9 8 8 7 6 4 4 4 2 3 3 3 4 5 4 5 5 5
10 9 9 5 7 7 7 5 6 4 7 9 6 3 11 18 19 17 16 16 16 15 14 14 14 14 13 12 12 10 9 8 7 6 5 3 2 1 2 3 3 4 4 5 5 6 6 6 7
10 10 11 14 7 7 4 4 5 5 3 5 5 7 9 16 18 18 17 17 17 17 15 15 15 15 14 13 11 11 10 9 7 5 3 1 0 2 4 5 5 6 7 7 8 8 9 10 10
11 10 8 9 10 6 5 5 1 9 6 6 5 7 15 15 18 17 16 15 16 15 14 13 13 12 12 10 9 8 7 6 6 4 2 1 2 1 3 6 7 8 9 10 10 11 12 13 14
14 8 8 3 3 8 5 6 4 6 9 6 5 9 18 15 19 18 16 17 14 14 13 11 10 10 9 8 7 6 4 3 3 2 1 1 1 1 2 1 3 6 7 9 10 12 13 14 16
14 7 6 3 3 3 3 4 4 4 5 6 5 12 10 11 15 15 15 16 14 13 12 9 8 7 6 6 4 3 3 3 2 2 0 2 2 2 2 3 4 5 6 7 8 9 10 10 13
14 9 6 4 1 4 1 3 1 2 2 3 4 14 13 12 17 17 18 17 15 13 11 9 7 7 6 7 5 4 5 3 3 3 1 1 2 3 2 3 4 6 8 12 11 9 6 6 3
14 10 4 4 1 5 3 2 2 3 3 1 9 15 16 14 16 16 20 20 19 16 11 8 6 6 5 6 6 6 6 5 4 2 1 2 3 3 6 8 8 6 6 9 12 12 11 10 8
9 3 5 3 6 5 5 5 4 3 10 7 13 15 18 18 17 18 21 21 18 16 14 10 8 6 5 5 4 3 3 1 1 1 1 2 4 7 10 12 17 13 13 10 10 13 12 11 12
5 3 14 13 8 7 7 7 7 5 5 10 9 15 19 19 17 22 22 21 18 17 14 11 9 7 5 4 3 4 3 2 2 2 2 1 4 8 12 15 19 21 16 11 12 12 12 10 10
3 13 15 12 8 9 6 7 8 4 5 7 10 9 17 20 25 27 23 21 20 18 14 11 9 7 6 6 6 7 6 5 3 2 2 4 7 11 16 20 21 22 21 16 13 10 9 12 9
13 17 18 17 13 13 10 9 10 8 2 5 6 9 11 21 24 26 25 23 20 17 14 12 9 7 6 7 8 9 7 5 4 2 4 7 9 12 14 18 21 21 22 17 13 10 6 5 4
13 16 19 22 19 15 16 11 11 8 12 8 11 10 10 11 22 26 27 24 20 18 16 13 8 4 7 9 10 9 7 5 2 4 7 8 10 12 14 17 21 23 13 12 16 8 6 5 7
15 16 20 21 14 13 19 19 18 17 14 10 10 12 12 13 20 26 28 25 22 16 15 14 10 6 7 10 11 9 8 3 1 5 6 8 11 15 15 15 20 15 7 10 12 7 6 4 5
14 16 23 16 14 14 17 17 10 12 14 17 13 13 13 14 11 16 23 26 24 21 16 16 11 11 9 10 10 8 6 2 2 4 6 9 13 15 15 11 11 13 8 5 2 4 6 6 5
11 11 17 13 9 5 13 9 20 12 8 13 17 12 15 14 15 14 16 22 24 22 18 16 15 16 13 11 10 8 7 4 4 7 7 11 13 16 15 10 9 9 5 3 2 4 7 9 12
12 13 14 11 11 11 12 7 11 13 5 6 8 13 15 18 17 16 14 21 22 21 21 17 20 18 15 12 9 9 7 6 5 7 9 10 13 15 14 10 8 9 9 7 8 9 11 13 14
13 12 12 9 7 6 7 3 10 10 4 4 6 10 15 20 21 18 16 18 23 23 23 22 23 20 18 16 13 9 6 6 5 8 9 11 13 14 14 11 9 9 9 9 10 10 11 12 13
14 10 4 2 1 4 11 7 12 10 7 7 6 9 15 20 23 23 23 23 24 24 25 24 23 21 18 16 14 9 6 4 6 9 11 11 13 13 11 9 8 8 8 9 10 10 12 13 15
17 11 5 4 3 6 11 7 16 23 11 4 4 9 16 24 24 24 22 20 22 22 24 25 25 24 22 19 16 12 9 6 8 11 13 13 13 12 10 8 8 8 9 10 10 11 11 13 14
16 13 12 8 10 4 8 17 17 8 9 2 3 6 14 24 23 22 22 21 20 21 22 22 23 24 23 20 17 13 9 8 10 13 14 13 12 10 8 7 7 8 8 9 9 11 13 14 14
15 11 6 6 3 7 5 10 11 14 10 5 3 6 14 16 20 22 21 20 20 20 20 23 23 23 20 20 18 14 11 11 13 13 14 13 12 9 7 6 6 7 7 9 11 12 12 13 13
16 14 9 7 6 4 4 7 8 10 8 6 5 5 9 11 12 14 23 22 20 22 23 23 26 27 25 23 21 17 15 14 13 14 14 14 13 10 8 7 6 7 8 10 13 13 13 13 14
13 10 7 8 7 7 4 14 11 9 5 5 7 6 4 4 10 12 14 21 22 19 21 23 23 24 22 22 25 21 19 16 14 14 15 16 14 11 10 9 7 7 8 10 12 13 14 16 17
Wind_Direction
78 77 71 74 75 86 80 77 75 134 104 105 136 113 134 107 65 37 152 144 141 141 138 134 129 123 122 121 123 125 125 124 125 127 127 126 131 133 131 129 129 129 125 125 114 120 140 141 152
84 79 75 79 89 83 84 81 97 128 145 112 165 134 202 192 174 110 151 145 140 142 143 140 134 128 124 127 128 129 128 127 124 123 129 126 132 138 128 127 128 132 137 141 125 122 127 149 140
78 72 83 83 86 85 88 76 87 98 113 140 170 254 232 215 160 140 148 143 139 144 147 146 139 130 125 126 129 127 127 124 121 123 127 130 132 131 129 132 128 127 133 143 142 140 136 139 145
74 75 77 95 91 85 87 77 75 70 88 178 97 221 135 151 127 141 143 143 141 144 150 150 143 133 130 129 127 125 128 133 131 130 136 136 143 141 137 136 127 131 132 135 133 140 145 144 146
76 73 79 95 89 82 79 69 70 63 58 75 64 114 129 130 135 138 140 139 135 140 146 144 138 133 132 133 137 135 129 124 127 133 136 132 139 146 152 147 136 135 141 147 149 147 144 156 165
69 75 79 80 83 78 81 74 72 55 58 57 56 124 132 130 135 139 141 138 133 139 143 141 137 133 133 140 139 130 125 123 121 127 128 131 136 158 139 150 182 168 186 189 183 166 166 179 202
76 69 64 74 71 70 67 71 68 55 65 72 67 140 147 141 141 144 141 136 134 138 141 137 135 130 135 133 131 130 119 113 113 115 116 125 141 152 143 175 206 222 227 233 231 219 209 214 228
75 60 48 44 48 68 78 92 94 66 61 80 63 120 157 152 144 142 138 135 137 139 140 140 132 132 128 124 127 127 116 114 109 111 115 126 150 168 191 213 231 248 253 256 258 259 255 253 257
73 71 65 52 43 40 45 26 57 72 55 55 45 124 173 155 142 141 140 140 141 139 139 138 135 131 127 126 126 125 123 119 120 115 121 146 287 239 240 247 249 258 259 259 261 262 261 257 254
55 53 57 49 59 43 32 29 49 53 58 36 48 105 156 146 133 133 132 139 138 136 135 134 132 131 128 126 125 122 122 123 122 106 75 36 41 40 277 250 251 257 257 253 255 259 259 260 260
30 43 47 120 46 40 353 8 55 75 60 47 37 139 147 146 139 143 138 138 139 136 134 133 132 130 129 129 132 131 140 151 146 134 77 329 336 12 8 338 276 269 258 263 266 268 269 270 266
33 48 59 79 248 314 32 44 30 63 38 42 105 165 160 159 152 133 132 134 131 134 129 123 122 120 134 142 141 145 197 201 226 224 337 355 295 294 303 303 281 275 269 269 268 268 275 280 272
36 29 30 47 31 21 7 72 110 71 32 3 155 156 173 156 154 149 136 130 127 132 132 121 127 136 132 145 127 128 151 177 183 180 150 342 290 305 313 317 294 278 276 266 259 252 249 265 285
3 28 62 5 34 1 320 14 181 91 84 93 155 156 168 178 177 154 137 126 118 119 129 136 132 142 130 123 117 111 113 127 152 152 265 287 288 273 287 296 280 282 303 293 268 261 264 265 267
357 68 22 345 327 290 237 249 258 143 85 103 151 159 166 173 175 150 136 128 118 112 107 112 122 127 142 151 138 124 121 107 71 296 277 296 291 295 294 300 300 298 285 285 279 268 265 273 269
41 329 347 333 321 305 260 271 271 206 150 107 117 163 170 179 161 158 149 140 130 118 104 108 111 132 150 153 140 140 139 113 134 99 91 4 327 314 318 308 301 302 297 284 283 270 261 257 259
356 330 340 331 314 305 298 286 283 241 198 160 123 133 176 174 169 161 158 145 134 125 114 95 106 117 128 138 143 135 131 127 114 73 360 311 312 311 312 310 307 302 295 273 257 268 243 237 264
321 328 332 335 314 308 301 312 276 272 240 217 171 154 156 180 179 169 156 152 149 140 141 135 111 116 139 152 152 144 139 128 108 67 355 333 324 319 317 309 308 304 297 263 235 253 226 245 247
312 319 319 335 322 303 296 298 293 266 259 247 218 184 162 156 179 179 166 155 158 158 157 152 145 134 146 162 167 159 148 130 80 12 357 348 343 338 331 333 333 321 309 262 197 223 233 246 283
300 310 322 331 322 306 293 302 296 267 285 262 256 210 173 171 182 188 178 172 169 162 163 172 164 177 170 166 176 168 161 156 37 359 356 352 357 356 348 350 9 19 53 105 169 209 221 262 269
288 307 331 316 312 312 314 324 345 318 274 239 224 224 221 204 185 186 193 185 172 169 170 178 179 179 179 177 175 178 189 218 294 316 356 355 0 358 352 345 357 24 56 78 143 215 230 262 280
281 294 336 330 324 312 326 304 330 335 299 232 222 208 222 225 217 197 187 187 180 174 171 182 190 181 179 182 182 188 204 234 299 320 347 346 355 356 349 341 334 345 354 15 307 268 271 281 289
270 295 329 331 328 316 304 298 327 334 310 286 237 217 201 203 209 211 191 185 181 178 178 185 190 185 182 178 186 200 216 240 294 326 323 336 349 349 343 336 324 323 319 305 297 289 283 280 284
259 292 311 316 324 298 291 257 310 345 329 292 242 218 212 204 202 195 185 183 183 186 187 191 195 189 186 185 188 191 212 251 296 316 309 323 340 341 337 333 330 327 325 317 308 299 294 293 290
243 270 295 276 213 270 292 289 305 340 322 275 281 232 206 203 201 195 190 190 191 192 192 191 192 193 194 196 196 180 196 246 294 316 317 325 331 333 335 329 324 324 322 320 313 307 306 302 299
234 227 234 267 266 305 290 260 312 317 325 283 275 234 210 193 190 194 195 194 194 195 200 198 196 196 198 202 200 192 200 249 285 309 310 324 325 325 325 324 331 333 334 329 322 318 309 301 297
220 217 243 250 277 282 266 287 310 320 340 119 54 172 172 186 188 195 193 197 195 197 202 208 204 202 203 204 201 198 203 234 268 287 297 315 314 316 317 322 329 332 331 328 326 322 318 316 314
212 224 215 220 261 272 259 290 286 330 323 282 86 135 176 187 197 204 201 199 202 202 205 207 206 203 205 202 203 199 214 238 259 275 287 305 300 299 298 305 316 318 327 336 339 338 334 330 326
208 219 229 221 218 277 296 278 311 330 350 335 203 141 157 173 183 201 206 203 204 206 211 212 210 208 211 213 213 218 229 241 254 268 278 295 289 281 272 280 296 312 333 351 354 351 344 338 329
256 221 244 217 211 220 251 277 314 324 297 319 229 238 227 203 193 187 191 202 208 212 218 217 215 214 213 216 217 216 227 240 250 263 276 287 280 273 268 273 284 302 336 351 358 358 353 346 337